Bisha, Saudi Arabia

10:13 PM +03 on June 23, 2017 (GMT +0300)
Bisha

Weather History for OEBH - January, 2013

Change the Weather History Date:

Thursday, January 3, 2013

  Actual Average Record
Temperature  
Mean Temperature 66 °F -  
Max Temperature 83 °F 76 °F 86 °F (2012)
Min Temperature 48 °F 48 °F 40 °F (2015)
Growing Degree Days 16 (Base 50)    
Moisture  
Dew Point 33 °F    
Average Humidity 29    
Maximum Humidity 54    
Minimum Humidity 7    
Precipitation  
Precipitation 0.00 in - - ()
Sea Level Pressure  
Sea Level Pressure 30.14 in    
Wind  
Wind Speed 3 mph ()    
Max Wind Speed 18 mph    
Max Gust Speed -    
Visibility 6.0 miles    
Events      
Averages and records for this station are not official NWS values.
T = Trace of Precipitation, MM = Missing Value Source: Averaged Metar Reports

Daily Weather History Graph

Daily Weather History Graph

Search for Another Location

Airport or City:

Trip Planner

Search our weather history database for the weather conditions in past years. The results will help you decide how hot, cold, wet, or windy it might be!

Date:

Astronomy

Jan. 03, 2013 Rise Set
Actual Time 6:45 AM +03 5:42 PM +03
Civil Twilight 6:21 AM +03 6:06 PM +03
Nautical Twilight 5:53 AM +03 6:34 PM +03
Astronomical Twilight 5:26 AM +03 7:01 PM +03
Moon 11:02 PM +03 (1/3) 10:33 AM +03 (1/3)
Length of Visible Light 11h 45m
Length of Day
10h 57m
Waning Gibbous, 69% of the Moon is Illuminated
Jan 3
Waning Gibbous
Jan 5
Last Quarter
Jan 11
New
Jan 19
First Quarter
Jan 27
Full

Hourly Weather History & Observations

Time (+03) Temp. Dew Point Humidity Pressure Visibility Wind Dir Wind Speed Gust Speed Precip Events Conditions
12:00 AM 62 °F 34 °F 23%  in 6 mi Calm Calm - -  
12:00 AM 60.8 °F 33.8 °F 36% 30.15 in - Calm Calm - N/A   Clear
1:00 AM 55.4 °F 32.0 °F 41% 30.15 in - Calm Calm - N/A   Clear
2:00 AM 53.6 °F 32.0 °F 44% 30.15 in - Calm Calm - N/A   Clear
3:00 AM 54 °F 34 °F 34%  in 6 mi Calm Calm - -  
3:00 AM 53.6 °F 33.8 °F 47% 30.15 in - Calm Calm - N/A   Clear
4:00 AM 48.2 °F 28.4 °F 46% 30.12 in - Calm Calm - N/A   Clear
5:00 AM 50.0 °F 30.2 °F 47% 30.12 in - Calm Calm - N/A   Clear
6:00 AM 49 °F 32 °F 40%  in 6 mi Calm Calm - -  
6:00 AM 48.2 °F 32.0 °F 54% 30.15 in - Calm Calm - N/A   Clear
7:00 AM 50.0 °F 32.0 °F 50% 30.15 in - Calm Calm - N/A   Clear
8:00 AM 55.4 °F 32.0 °F 41% 30.18 in - SW 3.5 mph - N/A   Clear
9:00 AM 63 °F 34 °F 22%  in 6 mi SW 4.6 mph - -  
9:00 AM 62.6 °F 33.8 °F 34% 30.18 in - SW 4.6 mph - N/A   Clear
10:00 AM 71.6 °F 37.4 °F 29% 30.18 in - SW 3.5 mph - N/A   Clear
11:00 AM 77.0 °F 39.2 °F 26% 30.18 in - WSW 4.6 mph - N/A   Clear
12:00 PM 79 °F 36 °F 12%  in 6 mi SW 3.5 mph - -  
12:00 PM 78.8 °F 35.6 °F 21% 30.15 in - SW 3.5 mph - N/A   Clear
1:00 PM 82.4 °F 32.0 °F 16% 30.09 in - Calm Calm - N/A   Clear
2:00 PM 84.2 °F 32.0 °F 15% 30.09 in - ENE 6.9 mph - N/A   Clear
3:00 PM 83 °F 30 °F 7%  in 6 mi ESE 6.9 mph - -  
3:00 PM 84.2 °F 30.2 °F 14% 30.06 in - ESE 6.9 mph - N/A   Clear
4:00 PM 82.4 °F 28.4 °F 14% 30.06 in - SE 3.5 mph - N/A   Clear
5:00 PM 80.6 °F 26.6 °F 14% 30.06 in - ENE 4.6 mph - N/A   Clear
6:00 PM 74 °F 32 °F 12%  in 6 mi East 18.4 mph - -  
6:00 PM 73.4 °F 32.0 °F 22% 30.09 in - East 18.4 mph - N/A   Clear
7:00 PM 71.6 °F 32.0 °F 23% 30.12 in - East 16.1 mph - N/A   Clear
8:00 PM 68.0 °F 33.8 °F 28% 30.15 in - ESE 16.1 mph - N/A   Clear
9:00 PM 64 °F 36 °F 23%  in 6 mi ESE 9.2 mph - -  
9:00 PM 64.4 °F 35.6 °F 34% 30.18 in - ESE 9.2 mph - N/A   Clear
10:00 PM 62.6 °F 35.6 °F 37% 30.18 in - Calm Calm - N/A   Clear
11:00 PM 60.8 °F 33.8 °F 36% 30.18 in - Calm Calm - N/A   Clear